[[{"header":{"parameterUnit":"m.s-1","parameterCategory":1,"la1":30.2991,"la2":30.254,"lo1":-89.0895,"lo2":-89.0444,"dy":0.0017,"dx":0.0017,"nx":28,"ny":28,"refTime":"2024-03-26T21:00:00:Z","depth":0,"parameterNumber":2,"parameterNumberName":"U-component_of_WINDS"},"data":[0,0,0,0,0,0,0,0,0,0,0,0,0,0,0,0,0,0,0,0,0,0,0,0,0,0,0,0,0,0,0,0,0,0,0,0,0,0,0,0,0,0,0,0,0,0,0,0,0,0,0,0,0,0,0,0,0,0,0.1743,0.1743,0,0.1741,0.1741,0.1741,0.1746,0.1746,0.1746,0.1747,0.1744,0.1743,0.1743,0,0,0,0,0,0,0,0,0,0,0,0,0,0.1749,0.1749,0.1743,0.1743,0.1743,0.1741,0.1741,0.1741,0.1746,0.1746,0.1747,0.1747,0.1744,0.1743,0.1743,0,0,0,0,0,0,0,0,0,0,0,0,0,0.1747,0.1749,0.1743,0.1745,0.1745,0.1741,0.1741,0.1741,0.1746,0.1746,0.1747,0.1747,0.1744,0.1744,0.1743,0.1737,0,0,0.1742,0.1742,0,0,0,0,0,0,0,0,0.1747,0.1747,0.1745,0.1745,0.1745,0.1744,0.1743,0.174,0.1746,0.1746,0.1747,0.1747,0.1744,0.1743,0.1742,0.1737,0.1736,0.1742,0.1742,0.1742,0.1742,0,0,0,0,0,0,0,0.1747,0.1747,0.1742,0.1745,0.1745,0.1746,0.1746,0.1742,0.1743,0.1746,0.1746,0.1746,0.1744,0.1743,0.1742,0.1736,0.1742,0.1742,0.1742,0.1742,0.1727,0.1727,0,0,0,0,0,0,0.1747,0.1747,0.1742,0.1742,0.1747,0.1746,0.1746,0.1744,0.1743,0.1744,0.1746,0.1746,0.1743,0.1743,0.1742,0.1736,0.1742,0.1742,0.1741,0.1727,0.1727,0.1727,0,0,0,0,0,0,0.1747,0.1747,0.1742,0.1745,0.1744,0.1745,0.1744,0.1744,0.1743,0.1743,0.1744,0.1745,0.1743,0.1743,0.1739,0.1736,0.1741,0.1741,0.1728,0.1727,0.1727,0.1722,0,0,0,0,0,0,0.1748,0.1747,0.1744,0.1745,0.1744,0.1738,0.1744,0.1744,0.1743,0.1743,0.1742,0.1742,0.1744,0.1739,0.1738,0.1735,0.1741,0.1728,0.1727,0.1727,0.1722,0.1722,0.1721,0,0,0,0,0,0.1748,0.1742,0.1744,0.1743,0.1741,0.1738,0.1738,0.174,0.1743,0.174,0.1741,0.1742,0.1736,0.1739,0.1738,0.1735,0.1728,0.1728,0.1727,0.1723,0.1722,0.1721,0,0,0,0,0,0,0.174,0.1742,0.1744,0.1738,0.1738,0.1739,0.1736,0.1738,0.1737,0.1737,0.1739,0.1739,0.1735,0.1734,0.1737,0.1729,0.1733,0.1732,0.173,0.1729,0.1728,0.1728,0.1741,0,0,0,0,0,0.1738,0.1736,0.1738,0.1732,0.1732,0.1734,0.1733,0.1735,0.1734,0.1734,0.1734,0.1734,0.1732,0.173,0.1728,0.1723,0.1723,0.172,0.172,0.1719,0.1718,0.1717,0.1716,0.1726,0.1726,0.1726,0,0,0.1733,0.1734,0.1732,0.1731,0.1731,0.1729,0.1734,0.1731,0.173,0.1733,0.173,0.173,0.173,0.1725,0.1723,0.1725,0.1716,0.1718,0.1718,0.1718,0.1716,0.1715,0.1714,0.1725,0.1725,0.1725,0,0,0.1723,0.1723,0.1719,0.172,0.172,0.1722,0.1721,0.1722,0.1723,0.172,0.1723,0.1722,0.1718,0.1718,0.1717,0.171,0.1712,0.171,0.1705,0.1704,0.1703,0.1702,0.17,0.17,0.1709,0.1709,0.1709,0,0.1716,0.1713,0.1717,0.1715,0.1714,0.1719,0.1716,0.1716,0.1716,0.1716,0.1718,0.1715,0.1715,0.1711,0.1709,0.1709,0.1708,0.1709,0.1703,0.1702,0.1702,0.17,0.1699,0.1709,0.1709,0.1709,0.1709,0,0.1706,0.1704,0.1701,0.1702,0.1702,0.1699,0.1702,0.1701,0.1704,0.1705,0.1703,0.1703,0.1703,0.1702,0.1703,0.1699,0.17,0.1703,0.1706,0.17,0.1699,0.1698,0.1708,0.1708,0.1709,0.1709,0,0,0.1689,0.1693,0.1692,0.1694,0.1696,0.1694,0.1692,0.1693,0.1692,0.1693,0.1691,0.1689,0.1692,0.1692,0.1694,0.1693,0.1688,0.1695,0.1696,0.1694,0.1684,0.1682,0.1682,0.169,0.169,0.169,0.1685,0,0.1679,0.1676,0.168,0.1676,0.1676,0.1681,0.168,0.1681,0.1683,0.1683,0.1685,0.1684,0.1688,0.1688,0.1687,0.1689,0.1686,0.1689,0.1689,0.1689,0.1689,0.1681,0.1678,0.1673,0.1684,0.1684,0.1684,0,0.1667,0.1668,0.1665,0.1669,0.1669,0.1667,0.1669,0.1668,0.1671,0.1672,0.1673,0.1676,0.1675,0.1679,0.1678,0.168,0.1681,0.1682,0.1682,0.1682,0.1686,0.168,0.1671,0.167,0.1683,0.1683,0.1683,0,0.1656,0.1656,0.1655,0.1656,0.166,0.1659,0.1661,0.1664,0.1664,0.1666,0.1666,0.1667,0.1668,0.1669,0.1673,0.1675,0.1671,0.1675,0.1673,0.1673,0.1671,0.1671,0.1662,0.1672,0.1672,0.1672,0.1672,0,0.1644,0.1642,0.165,0.1649,0.1647,0.1652,0.165,0.1653,0.1655,0.1655,0.166,0.166,0.1665,0.1666,0.1669,0.1668,0.1668,0.167,0.167,0.1669,0.1669,0.1669,0.1669,0.1672,0.1672,0.1672,0.1672,0,0.1631,0.1636,0.1634,0.164,0.1642,0.164,0.1645,0.1644,0.1648,0.1647,0.1648,0.1653,0.1654,0.1658,0.166,0.1662,0.1661,0.1662,0.166,0.1661,0.1658,0.1659,0.1649,0.1648,0.1658,0.1658,0.1658,0,0.1623,0.1621,0.1628,0.1628,0.163,0.1631,0.1632,0.1638,0.1639,0.1643,0.1642,0.1644,0.1646,0.1648,0.1651,0.1653,0.1655,0.1652,0.1655,0.1655,0.1656,0.1656,0.1656,0.1651,0.165,0.165,0.165,0,0.1609,0.1612,0.1614,0.1617,0.1618,0.1621,0.1623,0.1624,0.1631,0.1632,0.1633,0.1635,0.1638,0.164,0.1643,0.1645,0.1649,0.165,0.1649,0.1647,0.1647,0.1648,0.1658,0.1649,0.1649,0.1649,0.165,0.165,0.1598,0.1598,0.1603,0.1605,0.1608,0.1611,0.1611,0.1616,0.1617,0.1621,0.1624,0.1626,0.163,0.1635,0.1637,0.1639,0.1641,0.164,0.164,0.164,0.1639,0.1647,0.1639,0.164,0.164,0.164,0.164,0,0.1585,0.1589,0.1591,0.1595,0.1597,0.1602,0.1606,0.1607,0.1609,0.1613,0.1615,0.1618,0.1621,0.1626,0.1629,0.163,0.1632,0.163,0.163,0.1631,0.1637,0.1637,0.1629,0.1629,0.1629,0.1629,0.1629,0.1629,0.1578,0.1578,0.1582,0.1584,0.1588,0.1591,0.1593,0.1596,0.1599,0.1603,0.1605,0.1609,0.1614,0.1618,0.1621,0.1623,0.1624,0.1622,0.1624,0.1629,0.163,0.1631,0.1631,0.1622,0.1622,0.1618,0.1618,0.1618]},{"header":{"parameterUnit":"m.s-1","parameterCategory":1,"la1":30.2991,"la2":30.254,"lo1":-89.0895,"lo2":-89.0444,"dy":0.0017,"dx":0.0017,"nx":28,"ny":28,"refTime":"2024-03-26T21:00:00:Z","depth":0,"parameterNumber":3,"parameterNumberName":"V-component_of_WINDS"},"data":[0,0,0,0,0,0,0,0,0,0,0,0,0,0,0,0,0,0,0,0,0,0,0,0,0,0,0,0,0,0,0,0,0,0,0,0,0,0,0,0,0,0,0,0,0,0,0,0,0,0,0,0,0,0,0,0,0,0,-5.9274,-5.9275,0,-5.9334,-5.9335,-5.9336,-5.9261,-5.9258,-5.9256,-5.9253,-5.931,-5.9314,-5.9318,0,0,0,0,0,0,0,0,0,0,0,0,0,-5.9091,-5.9094,-5.9274,-5.9275,-5.9276,-5.9334,-5.9335,-5.9336,-5.9262,-5.9258,-5.9255,-5.9252,-5.9309,-5.9313,-5.9318,0,0,0,0,0,0,0,0,0,0,0,0,0,-5.9163,-5.9096,-5.9274,-5.9246,-5.9244,-5.9334,-5.9335,-5.9336,-5.9262,-5.9258,-5.9254,-5.925,-5.9307,-5.9313,-5.9319,-5.9438,0,0,-5.9337,-5.934,0,0,0,0,0,0,0,0,-5.9159,-5.9169,-5.9249,-5.9248,-5.9246,-5.9286,-5.9291,-5.937,-5.9263,-5.9255,-5.9253,-5.9248,-5.9305,-5.9311,-5.9331,-5.9441,-5.9443,-5.9338,-5.9342,-5.9344,-5.9346,0,0,0,0,0,0,0,-5.9154,-5.9166,-5.9298,-5.925,-5.9248,-5.9229,-5.9234,-5.9306,-5.9302,-5.9255,-5.925,-5.9259,-5.9303,-5.9325,-5.9332,-5.9444,-5.9338,-5.9343,-5.9347,-5.9349,-5.9656,-5.966,0,0,0,0,0,0,-5.9153,-5.9163,-5.9296,-5.93,-5.9191,-5.9235,-5.9242,-5.9277,-5.9301,-5.9301,-5.9262,-5.9255,-5.9317,-5.9325,-5.9334,-5.9476,-5.9344,-5.935,-5.9353,-5.9652,-5.9657,-5.9662,0,0,0,0,0,0,-5.9149,-5.9165,-5.9293,-5.923,-5.9245,-5.9243,-5.9283,-5.9281,-5.9303,-5.9306,-5.9305,-5.9286,-5.9314,-5.9325,-5.9413,-5.9477,-5.9353,-5.9358,-5.9646,-5.9653,-5.9659,-5.9761,0,0,0,0,0,0,-5.9144,-5.9164,-5.9211,-5.9232,-5.9248,-5.9374,-5.9287,-5.9285,-5.9314,-5.9305,-5.9328,-5.9328,-5.9312,-5.9405,-5.942,-5.9483,-5.9363,-5.9641,-5.9649,-5.9657,-5.9752,-5.9771,-5.9786,0,0,0,0,0,-5.9138,-5.9236,-5.9213,-5.923,-5.9307,-5.9378,-5.9387,-5.9368,-5.9319,-5.9365,-5.9368,-5.9327,-5.9468,-5.9414,-5.943,-5.9497,-5.9637,-5.9647,-5.9657,-5.9744,-5.9767,-5.9786,0,0,0,0,0,0,-5.922,-5.9238,-5.9213,-5.9321,-5.9349,-5.9365,-5.9422,-5.9392,-5.9433,-5.9423,-5.9396,-5.9402,-5.9496,-5.9505,-5.9446,-5.9614,-5.9544,-5.9558,-5.9605,-5.9626,-5.9643,-5.9639,-5.9368,0,0,0,0,0,-5.9251,-5.9309,-5.9321,-5.9414,-5.943,-5.9424,-5.9454,-5.9438,-5.9464,-5.9475,-5.9484,-5.951,-5.956,-5.9593,-5.964,-5.9753,-5.9757,-5.9806,-5.9823,-5.9837,-5.985,-5.9911,-5.9933,-5.9695,-5.9695,-5.9695,0,0,-5.9315,-5.9332,-5.937,-5.9432,-5.9451,-5.9511,-5.9434,-5.95,-5.9544,-5.9484,-5.9569,-5.9577,-5.9604,-5.9706,-5.9751,-5.9716,-5.9916,-5.985,-5.9861,-5.9866,-5.9924,-5.9946,-5.9966,-5.9702,-5.9701,-5.97,0,0,-5.9463,-5.9481,-5.9562,-5.9584,-5.9615,-5.9611,-5.963,-5.9652,-5.9655,-5.974,-5.9697,-5.9748,-5.9834,-5.9856,-5.9879,-6.0036,-6.0,-6.0052,-6.0141,-6.0201,-6.022,-6.0236,-6.0293,-6.0314,-6.0064,-6.0064,-6.0064,0,-5.9538,-5.9627,-5.9607,-5.9677,-5.9705,-5.9657,-5.9738,-5.9759,-5.9803,-5.9823,-5.9784,-5.9893,-5.9907,-6.0014,-6.0053,-6.0072,-6.0093,-6.0049,-6.0219,-6.0235,-6.025,-6.0304,-6.0325,-6.007,-6.0069,-6.0069,-6.0068,0,-5.9719,-5.9781,-5.9843,-5.9889,-5.9924,-5.9999,-5.999,-6.0027,-6.0008,-6.0007,-6.0095,-6.0111,-6.016,-6.0184,-6.0165,-6.0289,-6.0266,-6.0223,-6.0152,-6.028,-6.033,-6.035,-6.0079,-6.0077,-6.0075,-6.0073,0,0,-5.9919,-5.9955,-5.9977,-5.9998,-6.003,-6.0077,-6.015,-6.02,-6.0233,-6.0265,-6.0325,-6.0401,-6.0362,-6.0387,-6.037,-6.0423,-6.0547,-6.0373,-6.0373,-6.0406,-6.0685,-6.0718,-6.0742,-6.0524,-6.0527,-6.0531,-6.0683,0,-6.0067,-6.0196,-6.018,-6.0302,-6.036,-6.0315,-6.0378,-6.0404,-6.0406,-6.0454,-6.0455,-6.0509,-6.0453,-6.0469,-6.0519,-6.0522,-6.0603,-6.051,-6.0579,-6.0581,-6.0574,-6.0768,-6.0802,-6.0946,-6.0703,-6.0706,-6.0708,0,-6.0257,-6.0299,-6.0428,-6.0452,-6.0475,-6.0533,-6.0578,-6.0625,-6.0653,-6.065,-6.068,-6.0654,-6.0726,-6.0654,-6.0752,-6.069,-6.0717,-6.0722,-6.0727,-6.0733,-6.0653,-6.078,-6.0991,-6.1013,-6.0739,-6.0736,-6.0734,0,-6.0392,-6.0479,-6.0568,-6.0587,-6.0617,-6.0659,-6.0673,-6.0697,-6.0729,-6.0768,-6.0788,-6.0834,-6.0859,-6.0895,-6.0881,-6.083,-6.0983,-6.0909,-6.0982,-6.0983,-6.1017,-6.1015,-6.1236,-6.1034,-6.1033,-6.1033,-6.1032,0,-6.0559,-6.064,-6.0629,-6.0684,-6.0773,-6.0754,-6.0842,-6.085,-6.0872,-6.0927,-6.089,-6.0941,-6.092,-6.097,-6.096,-6.1043,-6.1055,-6.1054,-6.1051,-6.1058,-6.1058,-6.1076,-6.1065,-6.1039,-6.1037,-6.1036,-6.1035,0,-6.0724,-6.072,-6.0814,-6.0836,-6.0843,-6.0908,-6.0925,-6.0976,-6.0976,-6.1045,-6.106,-6.1059,-6.1116,-6.1106,-6.1169,-6.1162,-6.1267,-6.125,-6.1258,-6.1255,-6.1329,-6.1322,-6.1569,-6.16,-6.1377,-6.1379,-6.1381,0,-6.0831,-6.0893,-6.0922,-6.0957,-6.0975,-6.1031,-6.1064,-6.1047,-6.1083,-6.112,-6.1167,-6.1221,-6.1264,-6.1357,-6.136,-6.1408,-6.1393,-6.1476,-6.14,-6.1406,-6.1395,-6.1392,-6.1398,-6.1491,-6.1494,-6.1496,-6.1498,0,-6.1023,-6.1018,-6.1068,-6.1118,-6.1159,-6.1196,-6.123,-6.126,-6.1247,-6.1288,-6.1348,-6.1381,-6.1446,-6.15,-6.1545,-6.1558,-6.1526,-6.1522,-6.1541,-6.155,-6.1552,-6.1553,-6.13,-6.1516,-6.1514,-6.1513,-6.1512,-6.1511,-6.1163,-6.1216,-6.1245,-6.1302,-6.1326,-6.1359,-6.1409,-6.1415,-6.1465,-6.1518,-6.1505,-6.1572,-6.1599,-6.1656,-6.1674,-6.1726,-6.1695,-6.1723,-6.173,-6.1737,-6.1747,-6.1544,-6.1734,-6.1733,-6.1732,-6.1732,-6.1732,0,-6.1353,-6.137,-6.1423,-6.1473,-6.1517,-6.1485,-6.1521,-6.156,-6.1621,-6.1649,-6.1693,-6.1761,-6.1814,-6.1823,-6.1873,-6.1912,-6.1899,-6.1926,-6.1923,-6.1927,-6.1771,-6.175,-6.1936,-6.1936,-6.1936,-6.1936,-6.1936,-6.1936,-6.1457,-6.1546,-6.1545,-6.1645,-6.1661,-6.1729,-6.1752,-6.1782,-6.1805,-6.1884,-6.1929,-6.1935,-6.1955,-6.2006,-6.2053,-6.2054,-6.2075,-6.2108,-6.2103,-6.1958,-6.1937,-6.1918,-6.1898,-6.2112,-6.2112,-6.2254,-6.2256,-6.2257]}]]